• In Czech Republic
  • List of Countries
  • For 7 days
  • Water Temperature
  • Satellite Maps
  • Weather Map
  • Weather Widgets
  • user-avatar
    Login

    Hourly Weather Sherpur

    Today, 17 July, Tuesday

    Time Temperature Precipitation Wind Pressure Humidity
    00:00 +26°C° 0 mm 1 mps 607 mmHg 48%
    01:00 +26°C° 0 mm 1 mps 607 mmHg 51%
    02:00 +23°C° 0 mm 0 mps 607 mmHg 54%
    03:00 +23°C° 0.3 mm 0 mps 607 mmHg 55%
    04:00 +22°C° 0.3 mm 0 mps 606 mmHg 56%
    05:00 +21°C° 0 mm 0 mps 606 mmHg 59%
    06:00 +25°C° 0.1 mm 1 mps 607 mmHg 53%
    07:00 +26°C° 0.1 mm 1 mps 607 mmHg 48%
    08:00 +27°C° 0.1 mm 1 mps 608 mmHg 43%
    09:00 +28°C° 0 mm 1 mps 608 mmHg 38%
    10:00 +30°C° 0 mm 1 mps 608 mmHg 33%
    11:00 +31°C° 0 mm 2 mps 609 mmHg 29%
    12:00 +32°C° 0 mm 2 mps 609 mmHg 27%
    13:00 +34°C° 0 mm 2 mps 609 mmHg 25%
    14:00 +34°C° 0 mm 2 mps 609 mmHg 23%
    15:00 +34°C° 0 mm 3 mps 608 mmHg 23%
    16:00 +34°C° 0 mm 3 mps 608 mmHg 23%
    17:00 +34°C° 0 mm 3 mps 608 mmHg 24%
    18:00 +32°C° 0 mm 2 mps 608 mmHg 26%
    19:00 +31°C° 0 mm 2 mps 608 mmHg 28%
    20:00 +29°C° 0 mm 1 mps 608 mmHg 31%
    21:00 +29°C° 0 mm 1 mps 608 mmHg 33%
    22:00 +28°C° 0 mm 1 mps 608 mmHg 35%
    23:00 +27°C° 0 mm 1 mps 608 mmHg 37%

    Tomorrow, 18 July, Wednesday

    Time Temperature Precipitation Wind Pressure Humidity
    00:00 +26°C° 0 mm 1 mps 607 mmHg 39%
    01:00 +26°C° 0 mm 1 mps 607 mmHg 42%
    02:00 +25°C° 0 mm 1 mps 607 mmHg 44%
    03:00 +25°C° 0 mm 1 mps 606 mmHg 44%
    04:00 +24°C° 0 mm 1 mps 606 mmHg 45%
    05:00 +24°C° 0 mm 1 mps 606 mmHg 46%
    06:00 +25°C° 0 mm 1 mps 607 mmHg 41%
    07:00 +26°C° 0 mm 1 mps 608 mmHg 37%
    08:00 +28°C° 0 mm 1 mps 608 mmHg 33%
    09:00 +29°C° 0 mm 1 mps 609 mmHg 30%
    10:00 +30°C° 0 mm 1 mps 609 mmHg 26%
    11:00 +31°C° 0 mm 1 mps 609 mmHg 23%
    12:00 +32°C° 0 mm 2 mps 609 mmHg 21%
    13:00 +34°C° 0 mm 2 mps 609 mmHg 19%
    14:00 +35°C° 0 mm 2 mps 609 mmHg 17%
    15:00 +35°C° 0 mm 3 mps 609 mmHg 17%
    16:00 +35°C° 0 mm 3 mps 609 mmHg 17%
    17:00 +35°C° 0 mm 3 mps 609 mmHg 17%
    18:00 +34°C° 0 mm 3 mps 609 mmHg 18%
    19:00 +32°C° 0 mm 2 mps 608 mmHg 20%
    20:00 +31°C° 0 mm 2 mps 608 mmHg 22%
    21:00 +30°C° 0 mm 2 mps 608 mmHg 24%
    22:00 +29°C° 0 mm 2 mps 608 mmHg 26%
    23:00 +28°C° 0 mm 2 mps 608 mmHg 28%

    Day after tomorrow, 19 July, Thursday

    Time Temperature Precipitation Wind Pressure Humidity
    00:00 +27°C° 0 mm 1 mps 608 mmHg 30%
    01:00 +26°C° 0 mm 1 mps 607 mmHg 32%
    02:00 +25°C° 0 mm 1 mps 607 mmHg 35%
    03:00 +25°C° 0 mm 1 mps 607 mmHg 35%
    04:00 +24°C° 0 mm 1 mps 607 mmHg 36%
    05:00 +24°C° 0 mm 1 mps 606 mmHg 37%
    06:00 +25°C° 0 mm 1 mps 607 mmHg 33%
    07:00 +26°C° 0 mm 1 mps 608 mmHg 30%
    08:00 +28°C° 0 mm 1 mps 608 mmHg 26%
    09:00 +29°C° 0 mm 1 mps 609 mmHg 24%
    10:00 +30°C° 0 mm 1 mps 609 mmHg 21%
    11:00 +32°C° 0 mm 2 mps 609 mmHg 19%
    12:00 +32°C° 0 mm 2 mps 609 mmHg 17%
    13:00 +34°C° 0 mm 2 mps 609 mmHg 16%
    14:00 +35°C° 0 mm 2 mps 609 mmHg 15%
    15:00 +35°C° 0 mm 3 mps 609 mmHg 15%
    16:00 +35°C° 0 mm 3 mps 609 mmHg 15%
    17:00 +36°C° 0 mm 3 mps 609 mmHg 14%
    18:00 +34°C° 0 mm 3 mps 609 mmHg 16%
    19:00 +33°C° 0 mm 3 mps 608 mmHg 18%
    20:00 +31°C° 0 mm 2 mps 608 mmHg 20%
    21:00 +30°C° 0 mm 2 mps 608 mmHg 21%
    22:00 +29°C° 0 mm 2 mps 608 mmHg 23%
    23:00 +28°C° 0 mm 2 mps 608 mmHg 25%

    20 July, Friday

    Time Temperature Precipitation Wind Pressure Humidity
    00:00 +27°C° 0 mm 2 mps 607 mmHg 27%
    01:00 +26°C° 0 mm 1 mps 607 mmHg 29%
    02:00 +25°C° 0 mm 1 mps 606 mmHg 31%
    03:00 +25°C° 0 mm 1 mps 606 mmHg 31%
    04:00 +24°C° 0 mm 1 mps 606 mmHg 31%
    05:00 +24°C° 0 mm 2 mps 606 mmHg 31%
    06:00 +25°C° 0 mm 1 mps 606 mmHg 27%
    07:00 +27°C° 0 mm 1 mps 607 mmHg 24%
    08:00 +28°C° 0 mm 1 mps 608 mmHg 21%
    09:00 +29°C° 0 mm 1 mps 608 mmHg 18%
    10:00 +31°C° 0 mm 2 mps 608 mmHg 16%
    11:00 +32°C° 0 mm 2 mps 609 mmHg 13%
    12:00 +34°C° 0 mm 2 mps 609 mmHg 12%
    13:00 +35°C° 0 mm 2 mps 608 mmHg 11%
    14:00 +36°C° 0 mm 2 mps 608 mmHg 10%
    15:00 +36°C° 0 mm 3 mps 608 mmHg 10%
    16:00 +36°C° 0 mm 3 mps 608 mmHg 10%
    17:00 +36°C° 0 mm 3 mps 608 mmHg 10%
    18:00 +35°C° 0 mm 3 mps 608 mmHg 12%
    19:00 +33°C° 0 mm 3 mps 608 mmHg 14%
    20:00 +31°C° 0 mm 3 mps 608 mmHg 16%
    21:00 +30°C° 0 mm 3 mps 607 mmHg 19%
    22:00 +29°C° 0 mm 2 mps 607 mmHg 21%
    23:00 +27°C° 0 mm 2 mps 607 mmHg 24%

    21 July, Saturday

    Time Temperature Precipitation Wind Pressure Humidity
    00:00 +27°C° 0 mm 2 mps 607 mmHg 25%
    01:00 +26°C° 0 mm 2 mps 606 mmHg 26%
    02:00 +25°C° 0 mm 1 mps 606 mmHg 28%
    03:00 +25°C° 0 mm 2 mps 606 mmHg 28%
    04:00 +24°C° 0 mm 2 mps 605 mmHg 28%
    05:00 +24°C° 0 mm 2 mps 605 mmHg 28%
    06:00 +25°C° 0 mm 2 mps 606 mmHg 25%
    07:00 +27°C° 0 mm 2 mps 607 mmHg 22%
    08:00 +28°C° 0 mm 2 mps 607 mmHg 19%
    09:00 +29°C° 0 mm 2 mps 608 mmHg 17%
    10:00 +31°C° 0 mm 2 mps 608 mmHg 16%
    11:00 +32°C° 0 mm 2 mps 608 mmHg 14%
    12:00 +34°C° 0 mm 2 mps 608 mmHg 13%
    13:00 +35°C° 0 mm 2 mps 608 mmHg 12%
    14:00 +36°C° 0 mm 2 mps 608 mmHg 11%
    15:00 +36°C° 0 mm 3 mps 608 mmHg 11%
    16:00 +36°C° 0 mm 3 mps 608 mmHg 11%
    17:00 +37°C° 0 mm 3 mps 608 mmHg 10%
    18:00 +35°C° 0 mm 3 mps 608 mmHg 12%
    19:00 +33°C° 0 mm 3 mps 608 mmHg 14%
    20:00 +31°C° 0 mm 3 mps 608 mmHg 16%
    21:00 +30°C° 0 mm 3 mps 607 mmHg 18%
    22:00 +29°C° 0 mm 2 mps 607 mmHg 20%
    23:00 +27°C° 0 mm 2 mps 607 mmHg 22%

    22 July, Sunday

    Time Temperature Precipitation Wind Pressure Humidity
    00:00 +27°C° 0 mm 2 mps 607 mmHg 24%
    01:00 +26°C° 0 mm 2 mps 606 mmHg 25%
    02:00 +25°C° 0 mm 1 mps 606 mmHg 27%
    03:00 +24°C° 0 mm 2 mps 606 mmHg 26%
    04:00 +24°C° 0 mm 2 mps 605 mmHg 25%
    05:00 +23°C° 0 mm 2 mps 605 mmHg 24%
    06:00 +25°C° 0 mm 2 mps 606 mmHg 21%
    07:00 +27°C° 0 mm 2 mps 606 mmHg 17%
    08:00 +28°C° 0 mm 2 mps 607 mmHg 14%
    09:00 +30°C° 0 mm 2 mps 607 mmHg 12%
    10:00 +31°C° 0 mm 2 mps 608 mmHg 11%
    11:00 +34°C° 0 mm 2 mps 608 mmHg 9%
    12:00 +35°C° 0 mm 3 mps 608 mmHg 9%
    13:00 +36°C° 0 mm 3 mps 608 mmHg 8%
    14:00 +37°C° 0 mm 3 mps 608 mmHg 8%
    15:00 +37°C° 0 mm 4 mps 607 mmHg 8%
    16:00 +37°C° 0 mm 4 mps 607 mmHg 8%
    17:00 +37°C° 0 mm 5 mps 607 mmHg 8%
    18:00 +35°C° 0 mm 4 mps 607 mmHg 10%
    19:00 +34°C° 0 mm 4 mps 607 mmHg 11%
    20:00 +31°C° 0 mm 3 mps 606 mmHg 13%
    21:00 +30°C° 0 mm 3 mps 606 mmHg 14%
    22:00 +28°C° 0 mm 2 mps 606 mmHg 15%
    23:00 +27°C° 0 mm 2 mps 606 mmHg 17%
    Show more